Location: Newark
(40.3500°N, 15.2333°E)
Time: 11:15:42
(UTC+00:00)

Vanguard 1 Rocket - All Passes

Search period start: 22 January 2020 00:00
Search period end: 01 February 2020 00:00
Orbit: 650 x 4226 km, 34.3° (Epoch: 21 January)

Date Brightness Start Highest point End Pass type
(mag) Time Alt. Az. Time Alt. Az. Time Alt. Az.
22 Jan - 08:38:45 10° SW 08:46:37 44° SSE 09:01:19 10° E daylight
22 Jan - 11:02:05 10° WSW 11:13:33 70° S 11:35:41 10° E daylight
22 Jan - 13:27:33 10° W 13:43:37 63° SSW 14:08:53 10° SE daylight
22 Jan - 15:55:50 10° W 16:14:21 38° SW 16:36:23 10° SSE visible
22 Jan - 18:38:04 10° WSW 18:43:09 11° SW 18:48:14 10° SW visible
23 Jan - 07:29:40 10° SSW 07:35:46 27° SE 07:45:40 10° E daylight
23 Jan - 09:51:32 10° WSW 10:00:55 63° SSE 10:19:36 10° E daylight
23 Jan - 12:16:04 10° W 12:29:37 68° S 12:53:47 10° ESE daylight
23 Jan - 14:42:42 10° W 15:00:12 48° SSW 15:24:14 10° SE daylight
23 Jan - 17:15:03 10° W 17:29:58 21° SW 17:46:01 10° S visible
24 Jan - 06:22:33 10° SSE 06:25:30 13° SE 06:29:05 10° ESE daylight
24 Jan - 08:41:28 10° SW 08:49:08 50° SSE 09:03:52 10° E daylight
24 Jan - 11:05:04 10° W 11:16:16 70° S 11:37:58 10° ESE daylight
24 Jan - 13:30:34 10° W 13:46:03 57° SSW 14:10:36 10° SE daylight
24 Jan - 15:59:22 10° W 16:16:21 31° SW 16:36:49 10° SSE visible
25 Jan - 07:32:00 10° SSW 07:38:08 33° SE 07:48:34 10° E daylight
25 Jan - 09:54:29 10° WSW 10:03:38 66° S 10:21:59 10° E daylight
25 Jan - 12:19:05 10° W 12:32:14 64° SSW 12:55:46 10° ESE daylight
25 Jan - 14:45:54 10° W 15:02:26 41° SSW 15:25:14 10° SSE daylight
25 Jan - 17:20:56 10° WSW 17:31:56 15° SW 17:43:43 10° SSW visible
26 Jan - 06:23:43 10° S 06:27:44 17° SE 06:33:14 10° E daylight
26 Jan - 08:44:17 10° SW 08:51:46 55° SSE 09:06:23 10° E daylight
26 Jan - 11:08:07 10° W 11:18:59 68° S 11:40:10 10° ESE daylight
26 Jan - 13:33:39 10° W 13:48:29 50° SSW 14:12:02 10° SE daylight
26 Jan - 16:03:23 10° W 16:18:26 25° SW 16:36:32 10° S visible
27 Jan - 07:34:35 10° SW 07:40:39 39° SSE 07:51:21 10° E daylight
27 Jan - 09:57:30 10° WSW 10:06:24 67° S 10:24:21 10° E daylight
27 Jan - 12:22:09 10° W 12:34:51 58° SSW 12:57:34 10° SE daylight
27 Jan - 14:49:20 10° W 15:04:42 34° SW 15:25:48 10° SSE daylight
28 Jan - 06:25:39 10° S 06:30:08 22° SE 06:36:39 10° E daylight
28 Jan - 08:47:13 10° WSW 08:54:31 59° SSE 09:08:52 10° E daylight
28 Jan - 11:11:10 10° W 11:21:44 64° S 11:42:16 10° ESE daylight
28 Jan - 13:36:51 10° W 13:50:57 43° SSW 14:13:09 10° SE daylight
28 Jan - 16:08:17 10° WSW 16:20:37 19° SW 16:35:10 10° S visible
29 Jan - 07:37:19 10° SW 07:43:17 44° SSE 07:54:02 10° E daylight
29 Jan - 10:00:33 10° W 10:09:14 66° S 10:26:40 10° ESE daylight
29 Jan - 12:25:16 10° W 12:37:29 52° SSW 12:59:08 10° SE daylight
29 Jan - 14:53:08 10° W 15:07:01 27° SW 15:25:47 10° S daylight
30 Jan - 06:27:58 10° SSW 06:32:38 27° SE 06:39:47 10° E daylight
30 Jan - 08:50:14 10° WSW 08:57:21 61° S 09:11:22 10° E daylight
30 Jan - 11:14:16 10° W 11:24:30 59° SSW 11:44:13 10° ESE daylight
30 Jan - 13:40:14 10° W 13:53:27 36° SSW 14:13:52 10° SSE daylight
30 Jan - 16:15:21 10° WSW 16:22:57 13° SW 16:31:24 10° SSW visible
31 Jan - 05:19:58 10° SSE 05:22:22 13° SE 05:25:10 10° ESE visible
31 Jan - 07:40:12 10° SW 07:46:03 49° SSE 07:56:42 10° E daylight
31 Jan - 10:03:39 10° W 10:12:04 62° S 10:28:55 10° ESE daylight
31 Jan - 12:28:29 10° W 12:40:08 45° SSW 13:00:25 10° SE daylight
31 Jan - 14:57:34 10° WSW 15:09:27 21° SW 15:24:55 10° S daylight
